* Astronomy

Members Login
Username 
 
Password 
    Remember Me  
Post Info TOPIC: Comet C/2017 U1 (PANSTARRS)


L

Posts: 131433
Date:
Oumuamua
Permalink  
 


1I/Oumuamua (formally designated 1I/2017 U1; previously C/2017 U1 (PANSTARRS) and A/2017 U1) is the first known interstellar object to pass through the Solar System. It was discovered on a highly eccentric hyperbolic trajectory by Robert Weryk on 19 October 2017, 40 days after it passed its closest point to the Sun (perihelion).
Read more



__________________


L

Posts: 131433
Date:
Comet C/2017 U1 (PANSTARRS)
Permalink  
 


Orbital elements:
    C/2017 U1 (PANSTARRS)
Epoch 2017 Sept. 4.0 TT = JDT 2458000.5
T 2017 Sept.  9.41719 TT                                MPCW
q   0.2515404            (2000.0)            P               Q
z  -0.7541603      Peri.  241.01670     -0.63536548     +0.68733697
 +/-0.0181483      Node    24.61531     +0.49903801     +0.71329677
e   1.1897018      Incl.  122.32770     -0.58929769     -0.13702411
From 34 observations 2017 Oct. 18-24

MPEC 2017 - U181



__________________
Page 1 of 1  sorted by
 
Quick Reply

Please log in to post quick replies.



Create your own FREE Forum
Report Abuse
Powered by ActiveBoard